Year,Month,Day,Hour,Minute,Value (Times are PST for temperature in C)
2013,07,25,00,00,16.90
2013,07,25,00,01,16.90
2013,07,25,00,02,16.80
2013,07,25,00,03,16.80
2013,07,25,00,04,16.80
2013,07,25,00,05,16.80
2013,07,25,00,06,16.70
2013,07,25,00,07,16.70
2013,07,25,00,08,16.60
2013,07,25,00,09,16.60
2013,07,25,00,10,16.50
2013,07,25,00,11,16.40
2013,07,25,00,12,16.40
2013,07,25,00,13,16.30
2013,07,25,00,14,16.30
2013,07,25,00,15,16.30
2013,07,25,00,16,16.20
2013,07,25,00,17,16.20
2013,07,25,00,18,16.20
2013,07,25,00,19,16.20
2013,07,25,00,20,16.10
2013,07,25,00,21,16.10
2013,07,25,00,22,16.10
2013,07,25,00,23,16.10
2013,07,25,00,24,16.10
2013,07,25,00,25,16.10
2013,07,25,00,26,16.10
2013,07,25,00,27,16.00
2013,07,25,00,28,16.00
2013,07,25,00,29,16.00
2013,07,25,00,30,15.90
2013,07,25,00,31,15.90
2013,07,25,00,32,15.90
2013,07,25,00,33,15.90
2013,07,25,00,34,15.90
2013,07,25,00,35,15.80
2013,07,25,00,36,15.80
2013,07,25,00,37,15.80
2013,07,25,00,38,15.80
2013,07,25,00,39,15.90
2013,07,25,00,40,15.90
2013,07,25,00,41,15.90
2013,07,25,00,42,15.90
2013,07,25,00,43,15.90
2013,07,25,00,44,15.90
2013,07,25,00,45,15.90
2013,07,25,00,46,15.90
2013,07,25,00,47,15.90
2013,07,25,00,48,15.90
2013,07,25,00,49,15.90
2013,07,25,00,50,15.80
2013,07,25,00,51,15.80
2013,07,25,00,52,15.80
2013,07,25,00,53,15.80
2013,07,25,00,54,15.80
2013,07,25,00,55,15.80
2013,07,25,00,56,15.80
2013,07,25,00,57,15.70
2013,07,25,00,58,15.70
2013,07,25,00,59,15.70
2013,07,25,01,00,15.70
2013,07,25,01,01,15.70
2013,07,25,01,02,15.60
2013,07,25,01,03,15.60
2013,07,25,01,04,15.60
2013,07,25,01,05,15.60
2013,07,25,01,06,15.50
2013,07,25,01,07,15.50
2013,07,25,01,08,15.50
2013,07,25,01,09,15.50
2013,07,25,01,10,15.40
2013,07,25,01,11,15.40
2013,07,25,01,12,15.40
2013,07,25,01,13,15.40
2013,07,25,01,14,15.40
2013,07,25,01,15,15.40
2013,07,25,01,16,15.30
2013,07,25,01,17,15.30
2013,07,25,01,18,15.30
2013,07,25,01,19,15.30
2013,07,25,01,20,15.30
2013,07,25,01,21,15.30
2013,07,25,01,22,15.30
2013,07,25,01,23,15.30
2013,07,25,01,24,15.30
2013,07,25,01,25,15.30
2013,07,25,01,26,15.20
2013,07,25,01,27,15.20
2013,07,25,01,28,15.20
2013,07,25,01,29,15.10
2013,07,25,01,30,15.10
2013,07,25,01,31,15.10
2013,07,25,01,32,15.10
2013,07,25,01,33,15.10
2013,07,25,01,34,15.00
2013,07,25,01,35,15.00
2013,07,25,01,36,15.00
2013,07,25,01,37,14.90
2013,07,25,01,38,14.90
2013,07,25,01,39,14.90
2013,07,25,01,40,14.90
2013,07,25,01,41,14.80
2013,07,25,01,42,14.80
2013,07,25,01,43,14.80
2013,07,25,01,44,14.80
2013,07,25,01,45,14.80
2013,07,25,01,46,14.80
2013,07,25,01,47,14.80
2013,07,25,01,48,14.80
2013,07,25,01,49,14.80
2013,07,25,01,50,14.80
2013,07,25,01,51,14.80
2013,07,25,01,52,14.80
2013,07,25,01,53,14.80
2013,07,25,01,54,14.80
2013,07,25,01,55,14.80
2013,07,25,01,56,14.80
2013,07,25,01,57,14.80
2013,07,25,01,58,14.70
2013,07,25,01,59,14.70
2013,07,25,02,00,14.70
2013,07,25,02,01,14.70
2013,07,25,02,02,14.70
2013,07,25,02,03,14.70
2013,07,25,02,04,14.70
2013,07,25,02,05,14.70
2013,07,25,02,06,14.70
2013,07,25,02,07,14.70
2013,07,25,02,08,14.70
2013,07,25,02,09,14.70
2013,07,25,02,10,14.70
2013,07,25,02,11,14.70
2013,07,25,02,12,14.70
2013,07,25,02,13,14.70
2013,07,25,02,14,14.70
2013,07,25,02,15,14.70
2013,07,25,02,16,14.70
2013,07,25,02,17,14.70
2013,07,25,02,18,14.70
2013,07,25,02,19,14.70
2013,07,25,02,20,14.80
2013,07,25,02,21,14.80
2013,07,25,02,22,14.80
2013,07,25,02,23,14.80
2013,07,25,02,24,14.80
2013,07,25,02,25,14.70
2013,07,25,02,26,14.70
2013,07,25,02,27,14.70
2013,07,25,02,28,14.70
2013,07,25,02,29,14.70
2013,07,25,02,30,14.70
2013,07,25,02,31,14.70
2013,07,25,02,32,14.70
2013,07,25,02,33,14.70
2013,07,25,02,34,14.70
2013,07,25,02,35,14.60
2013,07,25,02,36,14.50
2013,07,25,02,37,14.50
2013,07,25,02,38,14.40
2013,07,25,02,39,14.40
2013,07,25,02,40,14.40
2013,07,25,02,41,14.30
2013,07,25,02,42,14.30
2013,07,25,02,43,14.30
2013,07,25,02,44,14.20
2013,07,25,02,45,14.20
2013,07,25,02,46,14.20
2013,07,25,02,47,14.20
2013,07,25,02,48,14.10
2013,07,25,02,49,14.10
2013,07,25,02,50,14.10
2013,07,25,02,51,14.10
2013,07,25,02,52,14.10
2013,07,25,02,53,14.10
2013,07,25,02,54,14.10
2013,07,25,02,55,14.10
2013,07,25,02,56,14.10
2013,07,25,02,57,14.10
2013,07,25,02,58,14.10
2013,07,25,02,59,14.10
2013,07,25,03,00,14.10
2013,07,25,03,01,14.10
2013,07,25,03,02,14.10
2013,07,25,03,03,14.10
2013,07,25,03,04,14.10
2013,07,25,03,05,14.10
2013,07,25,03,06,14.10
2013,07,25,03,07,14.10
2013,07,25,03,08,14.10
2013,07,25,03,09,14.20
2013,07,25,03,10,14.20
2013,07,25,03,11,14.20
2013,07,25,03,12,14.20
2013,07,25,03,13,14.20
2013,07,25,03,14,14.20
2013,07,25,03,15,14.20
2013,07,25,03,16,14.20
2013,07,25,03,17,14.10
2013,07,25,03,18,14.10
2013,07,25,03,19,14.00
2013,07,25,03,20,14.00
2013,07,25,03,21,13.90
2013,07,25,03,22,13.90
2013,07,25,03,23,13.90
2013,07,25,03,24,13.80
2013,07,25,03,25,13.80
2013,07,25,03,26,13.80
2013,07,25,03,27,13.80
2013,07,25,03,28,13.80
2013,07,25,03,29,13.70
2013,07,25,03,30,13.70
2013,07,25,03,31,13.70
2013,07,25,03,32,13.70
2013,07,25,03,33,13.70
2013,07,25,03,34,13.70
2013,07,25,03,35,13.70
2013,07,25,03,36,13.60
2013,07,25,03,37,13.60
2013,07,25,03,38,13.60
2013,07,25,03,39,13.60
2013,07,25,03,40,13.50
2013,07,25,03,41,13.50
2013,07,25,03,42,13.50
2013,07,25,03,43,13.40
2013,07,25,03,44,13.40
2013,07,25,03,45,13.40
2013,07,25,03,46,13.40
2013,07,25,03,47,13.40
2013,07,25,03,48,13.30
2013,07,25,03,49,13.30
2013,07,25,03,50,13.30
2013,07,25,03,51,13.30
2013,07,25,03,52,13.20
2013,07,25,03,53,13.20
2013,07,25,03,54,13.20
2013,07,25,03,55,13.20
2013,07,25,03,56,13.10
2013,07,25,03,57,13.10
2013,07,25,03,58,13.10
2013,07,25,03,59,13.10
2013,07,25,04,00,13.00
2013,07,25,04,01,13.00
2013,07,25,04,02,13.00
2013,07,25,04,03,13.00
2013,07,25,04,04,12.90
2013,07,25,04,05,12.90
2013,07,25,04,06,12.90
2013,07,25,04,07,12.90
2013,07,25,04,08,12.90
2013,07,25,04,09,12.90
2013,07,25,04,10,12.80
2013,07,25,04,11,12.80
2013,07,25,04,12,12.80
2013,07,25,04,13,12.80
2013,07,25,04,14,12.80
2013,07,25,04,15,12.80
2013,07,25,04,16,12.70
2013,07,25,04,17,12.70
2013,07,25,04,18,12.70
2013,07,25,04,19,12.70
2013,07,25,04,20,12.70
2013,07,25,04,21,12.70
2013,07,25,04,22,12.60
2013,07,25,04,23,12.60
2013,07,25,04,24,12.60
2013,07,25,04,25,12.60
2013,07,25,04,26,12.60
2013,07,25,04,27,12.60
2013,07,25,04,28,12.60
2013,07,25,04,29,12.50
2013,07,25,04,30,12.50
2013,07,25,04,31,12.50
2013,07,25,04,32,12.50
2013,07,25,04,33,12.40
2013,07,25,04,34,12.40
2013,07,25,04,35,12.40
2013,07,25,04,36,12.40
2013,07,25,04,37,12.40
2013,07,25,04,38,12.40
2013,07,25,04,39,12.40
2013,07,25,04,40,12.40
2013,07,25,04,41,12.40
2013,07,25,04,42,12.40
2013,07,25,04,43,12.40
2013,07,25,04,44,12.40
2013,07,25,04,45,12.40
2013,07,25,04,46,12.40
2013,07,25,04,47,12.30
2013,07,25,04,48,12.30
2013,07,25,04,49,12.30
2013,07,25,04,50,12.30
2013,07,25,04,51,12.30
2013,07,25,04,52,12.30
2013,07,25,04,53,12.30
2013,07,25,04,54,12.30
2013,07,25,04,55,12.30
2013,07,25,04,56,12.30
2013,07,25,04,57,12.30
2013,07,25,04,58,12.20
2013,07,25,04,59,12.20
2013,07,25,05,00,12.20
2013,07,25,05,01,12.20
2013,07,25,05,02,12.20
2013,07,25,05,03,12.20
2013,07,25,05,04,12.20
2013,07,25,05,05,12.20
2013,07,25,05,06,12.20
2013,07,25,05,07,12.20
2013,07,25,05,08,12.20
2013,07,25,05,09,12.20
2013,07,25,05,10,12.10
2013,07,25,05,11,12.10
2013,07,25,05,12,12.10
2013,07,25,05,13,12.10
2013,07,25,05,14,12.10
2013,07,25,05,15,12.10
2013,07,25,05,16,12.10
2013,07,25,05,17,12.10
2013,07,25,05,18,12.10
2013,07,25,05,19,12.10
2013,07,25,05,20,12.00
2013,07,25,05,21,12.00
2013,07,25,05,22,12.00
2013,07,25,05,23,12.00
2013,07,25,05,24,12.00
2013,07,25,05,25,12.00
2013,07,25,05,26,12.00
2013,07,25,05,27,12.00
2013,07,25,05,28,12.00
2013,07,25,05,29,12.00
2013,07,25,05,30,12.00
2013,07,25,05,31,12.00
2013,07,25,05,32,12.00
2013,07,25,05,33,11.90
2013,07,25,05,34,11.90
2013,07,25,05,35,11.90
2013,07,25,05,36,11.90
2013,07,25,05,37,11.90
2013,07,25,05,38,11.90
2013,07,25,05,39,11.90
2013,07,25,05,40,11.80
2013,07,25,05,41,11.80
2013,07,25,05,42,11.80
2013,07,25,05,43,11.80
2013,07,25,05,44,11.80
2013,07,25,05,45,11.80
2013,07,25,05,46,11.80
2013,07,25,05,47,11.80
2013,07,25,05,48,11.80
2013,07,25,05,49,11.80
2013,07,25,05,50,11.80
2013,07,25,05,51,11.70
2013,07,25,05,52,11.80
2013,07,25,05,53,11.80
2013,07,25,05,54,11.80
2013,07,25,05,55,11.70
2013,07,25,05,56,11.70
2013,07,25,05,57,11.70
2013,07,25,05,58,11.70
2013,07,25,05,59,11.70
2013,07,25,06,00,11.70
2013,07,25,06,01,11.70
2013,07,25,06,02,11.70
2013,07,25,06,03,11.70
2013,07,25,06,04,11.60
2013,07,25,06,05,11.60
2013,07,25,06,06,11.60
2013,07,25,06,07,11.60
2013,07,25,06,08,11.60
2013,07,25,06,09,11.60
2013,07,25,06,10,11.60
2013,07,25,06,11,11.60
2013,07,25,06,12,11.60
2013,07,25,06,13,11.60
2013,07,25,06,14,11.60
2013,07,25,06,15,11.60
2013,07,25,06,16,11.60
2013,07,25,06,17,11.60
2013,07,25,06,18,11.60
2013,07,25,06,19,11.60
2013,07,25,06,20,11.60
2013,07,25,06,21,11.60
2013,07,25,06,22,11.60
2013,07,25,06,23,11.50
2013,07,25,06,24,11.50
2013,07,25,06,25,11.50
2013,07,25,06,26,11.50
2013,07,25,06,27,11.50
2013,07,25,06,28,11.50
2013,07,25,06,29,11.50
2013,07,25,06,30,11.50
2013,07,25,06,31,11.50
2013,07,25,06,32,11.50
2013,07,25,06,33,11.50
2013,07,25,06,34,11.50
2013,07,25,06,35,11.50
2013,07,25,06,36,11.50
2013,07,25,06,37,11.50
2013,07,25,06,38,11.50
2013,07,25,06,39,11.60
2013,07,25,06,40,11.60
2013,07,25,06,41,11.50
2013,07,25,06,42,11.60
2013,07,25,06,43,11.60
2013,07,25,06,44,11.60
2013,07,25,06,45,11.50
2013,07,25,06,46,11.50
2013,07,25,06,47,11.50
2013,07,25,06,48,11.50
2013,07,25,06,49,11.50
2013,07,25,06,50,11.50
2013,07,25,06,51,11.60
2013,07,25,06,52,11.50
2013,07,25,06,53,11.60
2013,07,25,06,54,11.60
2013,07,25,06,55,11.60
2013,07,25,06,56,11.60
2013,07,25,06,57,11.60
2013,07,25,06,58,11.60
2013,07,25,06,59,11.60
2013,07,25,07,00,11.60
2013,07,25,07,01,11.60
2013,07,25,07,02,11.60
2013,07,25,07,03,11.60
2013,07,25,07,04,11.70
2013,07,25,07,05,11.70
2013,07,25,07,06,11.70
2013,07,25,07,07,11.70
2013,07,25,07,08,11.80
2013,07,25,07,09,11.80
2013,07,25,07,10,11.80
2013,07,25,07,11,11.90
2013,07,25,07,12,12.00
2013,07,25,07,13,12.00
2013,07,25,07,14,12.10
2013,07,25,07,15,12.20
2013,07,25,07,16,12.30
2013,07,25,07,17,12.30
2013,07,25,07,18,12.40
2013,07,25,07,19,12.50
2013,07,25,07,20,12.60
2013,07,25,07,21,12.70
2013,07,25,07,22,12.80
2013,07,25,07,23,12.90
2013,07,25,07,24,13.00
2013,07,25,07,25,13.10
2013,07,25,07,26,13.20
2013,07,25,07,27,13.30
2013,07,25,07,28,13.40
2013,07,25,07,29,13.50
2013,07,25,07,30,13.60
2013,07,25,07,31,13.70
2013,07,25,07,32,13.80
2013,07,25,07,33,13.90
2013,07,25,07,34,14.00
2013,07,25,07,35,14.10
2013,07,25,07,36,14.10
2013,07,25,07,37,14.20
2013,07,25,07,38,14.30
2013,07,25,07,39,14.50
2013,07,25,07,40,14.60
2013,07,25,07,41,14.70
2013,07,25,07,42,14.80
2013,07,25,07,43,14.90
2013,07,25,07,44,15.00
2013,07,25,07,45,15.10
2013,07,25,07,46,15.20
2013,07,25,07,47,15.20
2013,07,25,07,48,15.30
2013,07,25,07,49,15.30
2013,07,25,07,50,15.30
2013,07,25,07,51,15.30
2013,07,25,07,52,15.30
2013,07,25,07,53,15.40
2013,07,25,07,54,15.40
2013,07,25,07,55,15.40
2013,07,25,07,56,15.40
2013,07,25,07,57,15.40
2013,07,25,07,58,15.50
2013,07,25,07,59,15.50
2013,07,25,08,00,15.50
2013,07,25,08,01,15.60
2013,07,25,08,02,15.60
2013,07,25,08,03,15.60
2013,07,25,08,04,15.60
2013,07,25,08,05,15.70
2013,07,25,08,06,15.70
2013,07,25,08,07,15.80
2013,07,25,08,08,15.90
2013,07,25,08,09,16.00
2013,07,25,08,10,16.10
2013,07,25,08,11,16.20
2013,07,25,08,12,16.30
2013,07,25,08,13,16.30
2013,07,25,08,14,16.40
2013,07,25,08,15,16.40
2013,07,25,08,16,16.40
2013,07,25,08,17,16.40
2013,07,25,08,18,16.30
2013,07,25,08,19,16.30
2013,07,25,08,20,16.30
2013,07,25,08,21,16.30
2013,07,25,08,22,16.30
2013,07,25,08,23,16.30
2013,07,25,08,24,16.30
2013,07,25,08,25,16.30
2013,07,25,08,26,16.40
2013,07,25,08,27,16.40
2013,07,25,08,28,16.40
2013,07,25,08,29,16.40
2013,07,25,08,30,16.40
2013,07,25,08,31,16.40
2013,07,25,08,32,16.50
2013,07,25,08,33,16.50
2013,07,25,08,34,16.50
2013,07,25,08,35,16.50
2013,07,25,08,36,16.60
2013,07,25,08,37,16.60
2013,07,25,08,38,16.60
2013,07,25,08,39,16.60
2013,07,25,08,40,16.60
2013,07,25,08,41,16.60
2013,07,25,08,42,16.70
2013,07,25,08,43,16.70
2013,07,25,08,44,16.70
2013,07,25,08,45,16.70
2013,07,25,08,46,16.80
2013,07,25,08,47,16.80
2013,07,25,08,48,16.80
2013,07,25,08,49,16.90
2013,07,25,08,50,16.90
2013,07,25,08,51,16.90
2013,07,25,08,52,17.00
2013,07,25,08,53,17.00
2013,07,25,08,54,17.10
2013,07,25,08,55,17.20
2013,07,25,08,56,17.20
2013,07,25,08,57,17.30
2013,07,25,08,58,17.30
2013,07,25,08,59,17.30
2013,07,25,09,00,17.30
2013,07,25,09,01,17.40
2013,07,25,09,02,17.40
2013,07,25,09,03,17.40
2013,07,25,09,04,17.30
2013,07,25,09,05,17.40
2013,07,25,09,06,17.40
2013,07,25,09,07,17.40
2013,07,25,09,08,17.40
2013,07,25,09,09,17.40
2013,07,25,09,10,17.40
2013,07,25,09,11,17.50
2013,07,25,09,12,17.50
2013,07,25,09,13,17.60
2013,07,25,09,14,17.70
2013,07,25,09,15,17.80
2013,07,25,09,16,17.90
2013,07,25,09,17,18.00
2013,07,25,09,18,18.00
2013,07,25,09,19,18.00
2013,07,25,09,20,17.90
2013,07,25,09,21,17.90
2013,07,25,09,22,17.90
2013,07,25,09,23,17.90
2013,07,25,09,24,18.00
2013,07,25,09,25,18.00
2013,07,25,09,26,18.10
2013,07,25,09,27,18.30
2013,07,25,09,28,18.40
2013,07,25,09,29,18.50
2013,07,25,09,30,18.60
2013,07,25,09,31,18.60
2013,07,25,09,32,18.70
2013,07,25,09,33,18.60
2013,07,25,09,34,18.60
2013,07,25,09,35,18.50
2013,07,25,09,36,18.50
2013,07,25,09,37,18.40
2013,07,25,09,38,18.40
2013,07,25,09,39,18.40
2013,07,25,09,40,18.40
2013,07,25,09,41,18.40
2013,07,25,09,42,18.40
2013,07,25,09,43,18.50
2013,07,25,09,44,18.60
2013,07,25,09,45,18.70
2013,07,25,09,46,18.70
2013,07,25,09,47,18.80
2013,07,25,09,48,18.80
2013,07,25,09,49,18.90
2013,07,25,09,50,19.00
2013,07,25,09,51,19.10
2013,07,25,09,52,19.10
2013,07,25,09,53,19.20
2013,07,25,09,54,19.20
2013,07,25,09,55,19.20
2013,07,25,09,56,19.20
2013,07,25,09,57,19.10
2013,07,25,09,58,19.10
2013,07,25,09,59,19.10
2013,07,25,10,00,19.10
2013,07,25,10,01,19.10
2013,07,25,10,02,19.10
2013,07,25,10,03,19.10
2013,07,25,10,04,19.10
2013,07,25,10,05,19.20
2013,07,25,10,06,19.20
2013,07,25,10,07,19.30
2013,07,25,10,08,19.30
2013,07,25,10,09,19.40
2013,07,25,10,10,19.40
2013,07,25,10,11,19.50
2013,07,25,10,12,19.50
2013,07,25,10,13,19.70
2013,07,25,10,14,19.80
2013,07,25,10,15,20.00
2013,07,25,10,16,20.10
2013,07,25,10,17,20.10
2013,07,25,10,18,20.20
2013,07,25,10,19,20.20
2013,07,25,10,20,20.10
2013,07,25,10,21,20.10
2013,07,25,10,22,20.00
2013,07,25,10,23,20.00
2013,07,25,10,24,19.90
2013,07,25,10,25,19.90
2013,07,25,10,26,19.90
2013,07,25,10,27,19.90
2013,07,25,10,28,20.00
2013,07,25,10,29,20.10
2013,07,25,10,30,20.20
2013,07,25,10,31,20.30
2013,07,25,10,32,20.40
2013,07,25,10,33,20.50
2013,07,25,10,34,20.60
2013,07,25,10,35,20.70
2013,07,25,10,36,20.70
2013,07,25,10,37,20.80
2013,07,25,10,38,20.80
2013,07,25,10,39,20.80
2013,07,25,10,40,20.80
2013,07,25,10,41,20.80
2013,07,25,10,42,20.90
2013,07,25,10,43,20.90
2013,07,25,10,44,20.90
2013,07,25,10,45,20.80
2013,07,25,10,46,20.80
2013,07,25,10,47,20.80
2013,07,25,10,48,20.70
2013,07,25,10,49,20.70
2013,07,25,10,50,20.70
2013,07,25,10,51,20.80
2013,07,25,10,52,20.80
2013,07,25,10,53,20.90
2013,07,25,10,54,21.00
2013,07,25,10,55,21.10
2013,07,25,10,56,21.20
2013,07,25,10,57,21.30
2013,07,25,10,58,21.30
2013,07,25,10,59,21.30
2013,07,25,11,00,21.30
2013,07,25,11,01,21.40
2013,07,25,11,02,21.40
2013,07,25,11,03,21.40
2013,07,25,11,04,21.40
2013,07,25,11,05,21.40
2013,07,25,11,06,21.40
2013,07,25,11,07,21.40
2013,07,25,11,08,21.40
2013,07,25,11,09,21.50
2013,07,25,11,10,21.50
2013,07,25,11,11,21.60
2013,07,25,11,12,21.60
2013,07,25,11,13,21.60
2013,07,25,11,14,21.60
2013,07,25,11,15,21.60
2013,07,25,11,16,21.60
2013,07,25,11,17,21.60
2013,07,25,11,18,21.60
2013,07,25,11,19,21.60
2013,07,25,11,20,21.60
2013,07,25,11,21,21.60
2013,07,25,11,22,21.70
2013,07,25,11,23,21.80
2013,07,25,11,24,21.90
2013,07,25,11,25,22.00
2013,07,25,11,26,22.10
2013,07,25,11,27,22.10
2013,07,25,11,28,22.20
2013,07,25,11,29,22.20
2013,07,25,11,30,22.20
2013,07,25,11,31,22.20
2013,07,25,11,32,22.30
2013,07,25,11,33,22.30
2013,07,25,11,34,22.40
2013,07,25,11,35,22.50
2013,07,25,11,36,22.60
2013,07,25,11,37,22.60
2013,07,25,11,38,22.70
2013,07,25,11,39,22.80
2013,07,25,11,40,22.80
2013,07,25,11,41,22.90
2013,07,25,11,42,22.90
2013,07,25,11,43,22.90
2013,07,25,11,44,22.90
2013,07,25,11,45,22.80
2013,07,25,11,46,22.80
2013,07,25,11,47,22.90
2013,07,25,11,48,22.90
2013,07,25,11,49,23.00
2013,07,25,11,50,23.00
2013,07,25,11,51,23.00
2013,07,25,11,52,23.10
2013,07,25,11,53,23.30
2013,07,25,11,54,23.50
2013,07,25,11,55,23.60
2013,07,25,11,56,23.70
2013,07,25,11,57,23.70
2013,07,25,11,58,23.70
2013,07,25,11,59,23.70
2013,07,25,12,00,23.70
2013,07,25,12,01,23.80
2013,07,25,12,02,23.80
2013,07,25,12,03,23.80
2013,07,25,12,04,23.90
2013,07,25,12,05,23.90
2013,07,25,12,06,23.90
2013,07,25,12,07,23.90
2013,07,25,12,08,23.90
2013,07,25,12,09,24.00
2013,07,25,12,10,24.00
2013,07,25,12,11,24.10
2013,07,25,12,12,24.10
2013,07,25,12,13,24.20
2013,07,25,12,14,24.30
2013,07,25,12,15,24.20
2013,07,25,12,16,24.30
2013,07,25,12,17,24.30
2013,07,25,12,18,24.30
2013,07,25,12,19,24.30
2013,07,25,12,20,24.30
2013,07,25,12,21,24.30
2013,07,25,12,22,24.30
2013,07,25,12,23,24.40
2013,07,25,12,24,24.50
2013,07,25,12,25,24.60
2013,07,25,12,26,24.70
2013,07,25,12,27,24.80
2013,07,25,12,28,24.80
2013,07,25,12,29,24.80
2013,07,25,12,30,24.80
2013,07,25,12,31,24.80
2013,07,25,12,32,24.80
2013,07,25,12,33,24.80
2013,07,25,12,34,24.90
2013,07,25,12,35,24.90
2013,07,25,12,36,24.90
2013,07,25,12,37,24.90
2013,07,25,12,38,24.90
2013,07,25,12,39,25.00
2013,07,25,12,40,25.10
2013,07,25,12,41,25.20
2013,07,25,12,42,25.20
2013,07,25,12,43,25.20
2013,07,25,12,44,25.20
2013,07,25,12,45,25.20
2013,07,25,12,46,25.30
2013,07,25,12,47,25.40
2013,07,25,12,48,25.50
2013,07,25,12,49,25.60
2013,07,25,12,50,25.70
2013,07,25,12,51,25.80
2013,07,25,12,52,25.80
2013,07,25,12,53,25.90
2013,07,25,12,54,25.90
2013,07,25,12,55,25.90
2013,07,25,12,56,25.90
2013,07,25,12,57,25.80
2013,07,25,12,58,25.80
2013,07,25,12,59,25.80
2013,07,25,13,00,25.80
2013,07,25,13,01,25.80
2013,07,25,13,02,25.80
2013,07,25,13,03,25.90
2013,07,25,13,04,26.00
2013,07,25,13,05,26.10
2013,07,25,13,06,26.30
2013,07,25,13,07,26.40
2013,07,25,13,08,26.60
2013,07,25,13,09,26.70
2013,07,25,13,10,26.70
2013,07,25,13,11,26.60
2013,07,25,13,12,26.70
2013,07,25,13,13,26.70
2013,07,25,13,14,26.70
2013,07,25,13,15,26.70
2013,07,25,13,16,26.70
2013,07,25,13,17,26.70
2013,07,25,13,18,26.80
2013,07,25,13,19,26.80
2013,07,25,13,20,27.00
2013,07,25,13,21,27.20
2013,07,25,13,22,27.20
2013,07,25,13,23,27.30
2013,07,25,13,24,27.30
2013,07,25,13,25,27.40
2013,07,25,13,26,27.40
2013,07,25,13,27,27.40
2013,07,25,13,28,27.40
2013,07,25,13,29,27.30
2013,07,25,13,30,27.30
2013,07,25,13,31,27.20
2013,07,25,13,32,27.20
2013,07,25,13,33,27.20
2013,07,25,13,34,27.20
2013,07,25,13,35,27.30
2013,07,25,13,36,27.40
2013,07,25,13,37,27.60
2013,07,25,13,38,27.70
2013,07,25,13,39,27.60
2013,07,25,13,40,27.60
2013,07,25,13,41,27.60
2013,07,25,13,42,27.60
2013,07,25,13,43,27.70
2013,07,25,13,44,27.80
2013,07,25,13,45,27.80
2013,07,25,13,46,27.90
2013,07,25,13,47,28.00
2013,07,25,13,48,28.00
2013,07,25,13,49,28.10
2013,07,25,13,50,28.10
2013,07,25,13,51,28.00
2013,07,25,13,52,28.00
2013,07,25,13,53,28.00
2013,07,25,13,54,28.10
2013,07,25,13,55,28.10
2013,07,25,13,56,28.00
2013,07,25,13,57,27.90
2013,07,25,13,58,27.90
2013,07,25,13,59,27.80
2013,07,25,14,00,27.90
2013,07,25,14,01,27.90
2013,07,25,14,02,28.00
2013,07,25,14,03,28.10
2013,07,25,14,04,28.10
2013,07,25,14,05,28.10
2013,07,25,14,06,28.10
2013,07,25,14,07,28.20
2013,07,25,14,08,28.30
2013,07,25,14,09,28.30
2013,07,25,14,10,28.40
2013,07,25,14,11,28.60
2013,07,25,14,12,28.60
2013,07,25,14,13,28.80
2013,07,25,14,14,28.80
2013,07,25,14,15,28.90
2013,07,25,14,16,28.80
2013,07,25,14,17,28.70
2013,07,25,14,18,28.70
2013,07,25,14,19,28.60
2013,07,25,14,20,28.60
2013,07,25,14,21,28.70
2013,07,25,14,22,28.70
2013,07,25,14,23,28.70
2013,07,25,14,24,28.70
2013,07,25,14,25,28.70
2013,07,25,14,26,28.70
2013,07,25,14,27,28.80
2013,07,25,14,28,28.90
2013,07,25,14,29,29.10
2013,07,25,14,30,29.20
2013,07,25,14,31,29.30
2013,07,25,14,32,29.50
2013,07,25,14,33,29.60
2013,07,25,14,34,29.70
2013,07,25,14,35,29.70
2013,07,25,14,36,29.70
2013,07,25,14,37,29.70
2013,07,25,14,38,29.70
2013,07,25,14,39,29.70
2013,07,25,14,40,29.60
2013,07,25,14,41,29.50
2013,07,25,14,42,29.30
2013,07,25,14,43,29.30
2013,07,25,14,44,29.30
2013,07,25,14,45,29.30
2013,07,25,14,46,29.30
2013,07,25,14,47,29.30
2013,07,25,14,48,29.30
2013,07,25,14,49,29.30
2013,07,25,14,50,29.30
2013,07,25,14,51,29.30
2013,07,25,14,52,29.30
2013,07,25,14,53,29.30
2013,07,25,14,54,29.30
2013,07,25,14,55,29.30
2013,07,25,14,56,29.30
2013,07,25,14,57,29.40
2013,07,25,14,58,29.40
2013,07,25,14,59,29.50
2013,07,25,15,00,29.60
2013,07,25,15,01,29.60
2013,07,25,15,02,29.50
2013,07,25,15,03,29.50
2013,07,25,15,04,29.50
2013,07,25,15,05,29.40
2013,07,25,15,06,29.30
2013,07,25,15,07,29.30
2013,07,25,15,08,29.20
2013,07,25,15,09,29.20
2013,07,25,15,10,29.20
2013,07,25,15,11,29.20
2013,07,25,15,12,29.20
2013,07,25,15,13,29.30
2013,07,25,15,14,29.30
2013,07,25,15,15,29.30
2013,07,25,15,16,29.20
2013,07,25,15,17,29.20
2013,07,25,15,18,29.20
2013,07,25,15,19,29.20
2013,07,25,15,20,29.20
2013,07,25,15,21,29.10
2013,07,25,15,22,29.00
2013,07,25,15,23,28.90
2013,07,25,15,24,29.00
2013,07,25,15,25,29.00
2013,07,25,15,26,29.10
2013,07,25,15,27,29.20
2013,07,25,15,28,29.30
2013,07,25,15,29,29.40
2013,07,25,15,30,29.40
2013,07,25,15,31,29.50
2013,07,25,15,32,29.50
2013,07,25,15,33,29.50
2013,07,25,15,34,29.40
2013,07,25,15,35,29.40
2013,07,25,15,36,29.40
2013,07,25,15,37,29.40
2013,07,25,15,38,29.40
2013,07,25,15,39,29.40
2013,07,25,15,40,29.40
2013,07,25,15,41,29.50
2013,07,25,15,42,29.40
2013,07,25,15,43,29.40
2013,07,25,15,44,29.40
2013,07,25,15,45,29.40
2013,07,25,15,46,29.40
2013,07,25,15,47,29.40
2013,07,25,15,48,29.50
2013,07,25,15,49,29.50
2013,07,25,15,50,29.60
2013,07,25,15,51,29.60
2013,07,25,15,52,29.60
2013,07,25,15,53,29.60
2013,07,25,15,54,29.60
2013,07,25,15,55,29.70
2013,07,25,15,56,29.80
2013,07,25,15,57,29.80
2013,07,25,15,58,29.80
2013,07,25,15,59,29.90
2013,07,25,16,00,29.90
2013,07,25,16,01,29.90
2013,07,25,16,02,29.80
2013,07,25,16,03,29.70
2013,07,25,16,04,29.60
2013,07,25,16,05,29.60
2013,07,25,16,06,29.60
2013,07,25,16,07,29.70
2013,07,25,16,08,29.70
2013,07,25,16,09,29.70
2013,07,25,16,10,29.80
2013,07,25,16,11,29.80
2013,07,25,16,12,29.80
2013,07,25,16,13,29.90
2013,07,25,16,14,30.00
2013,07,25,16,15,30.10
2013,07,25,16,16,30.10
2013,07,25,16,17,30.20
2013,07,25,16,18,30.20
2013,07,25,16,19,30.20
2013,07,25,16,20,30.20
2013,07,25,16,21,30.20
2013,07,25,16,22,30.20
2013,07,25,16,23,30.20
2013,07,25,16,24,30.10
2013,07,25,16,25,30.10
2013,07,25,16,26,30.00
2013,07,25,16,27,29.90
2013,07,25,16,28,29.90
2013,07,25,16,29,29.90
2013,07,25,16,30,30.00
2013,07,25,16,31,30.10
2013,07,25,16,32,30.10
2013,07,25,16,33,30.00
2013,07,25,16,34,30.00
2013,07,25,16,35,30.00
2013,07,25,16,36,30.00
2013,07,25,16,37,30.10
2013,07,25,16,38,30.10
2013,07,25,16,39,30.10
2013,07,25,16,40,30.00
2013,07,25,16,41,30.00
2013,07,25,16,42,30.00
2013,07,25,16,43,29.90
2013,07,25,16,44,29.90
2013,07,25,16,45,29.90
2013,07,25,16,46,29.80
2013,07,25,16,47,29.80
2013,07,25,16,48,29.80
2013,07,25,16,49,29.80
2013,07,25,16,50,29.80
2013,07,25,16,51,29.80
2013,07,25,16,52,29.90
2013,07,25,16,53,30.00
2013,07,25,16,54,30.00
2013,07,25,16,55,30.10
2013,07,25,16,56,30.10
2013,07,25,16,57,30.10
2013,07,25,16,58,30.00
2013,07,25,16,59,30.00
2013,07,25,17,00,29.90
2013,07,25,17,01,29.90
2013,07,25,17,02,29.80
2013,07,25,17,03,29.80
2013,07,25,17,04,29.70
2013,07,25,17,05,29.60
2013,07,25,17,06,29.60
2013,07,25,17,07,29.50
2013,07,25,17,08,29.50
2013,07,25,17,09,29.50
2013,07,25,17,10,29.50
2013,07,25,17,11,29.50
2013,07,25,17,12,29.40
2013,07,25,17,13,29.40
2013,07,25,17,14,29.40
2013,07,25,17,15,29.40
2013,07,25,17,16,29.40
2013,07,25,17,17,29.40
2013,07,25,17,18,29.40
2013,07,25,17,19,29.50